Regional Weather Roundup
Issued by NWS Burlington, VT

Home | Current Version | Previous Version | Text Only | Print | Product List | Glossary On
Versions: 1 2 3 4 5 6 7 8 9 10 11 12 13 14 15 16 17 18 19 20 21 22 23 24 25 26 27 28 29 30 31 32 33 34 35 36 37 38 39 40 41 42 43 44 45 46 47 48 49 50
000
ASUS41 KBTV 230130
RWRBTV
VERMONT REGIONAL WEATHER ROUNDUP
NATIONAL WEATHER SERVICE BURLINGTON VT
900 PM EDT FRI MAY 22 2015

NOTE: "FAIR" INDICATES FEW OR NO CLOUDS BELOW 12,000 FEET WITH NO
SIGNIFICANT WEATHER AND/OR OBSTRUCTIONS TO VISIBILITY.

* THESE REPORTS ARE NOT UNDER NWS QUALITY CONTROL AND/OR DO NOT
  REPORT WEATHER SUCH AS PRECIPITATION AND FOG.

VTZ001>019-230200-
_____VERMONT_____


CITY           SKY/WX    TMP DP  RH WIND       PRES   REMARKS
BURLINGTON     MOCLDY    49  24  37 N17G26    30.08R
MONTPELIER     CLOUDY    44  27  51 NW10      30.07R
MORRISVILLE    CLOUDY    48  24  39 NW12G20   30.07R
ST. JOHNSBURY*   N/A     49  25  39 MISG      30.00R
LYNDONVILLE*   MOCLDY    45  22  40 W9        30.03R
MIDDLEBURY*    RAIN      43  36  75 NE5       30.08R
RUTLAND*       CLOUDY    45  30  57 N10G21    30.06R
SPRINGFIELD    PTCLDY    52  28  39 VRB7G17   30.03R
HIGHGATE*      MOCLDY    44  22  43 NW6       30.11R
NEWPORT*         N/A     40  27  57 NW10G23   30.05R
BENNINGTON     PTCLDY    53  24  32 VRB7G18   30.04R
SUTTON*          N/A     43 N/A N/A MISG        N/A
GALLUP MILLS*    N/A     43 N/A N/A MISG        N/A
MT. MANSFIELD*   N/A     30 N/A N/A CALM        N/A

_____LAKE CHAMPLAIN_____


CITY           SKY/WX    TMP DP  RH WIND       PRES   REMARKS
BURTON ISLAND*   N/A     46  32  57 NW8         N/A
COLCHESTER RF*   N/A     48  30  49 N21         N/A
DIAMOND ISL*     N/A     48  28  46 NW15        N/A

$$

NYZ007-026>031-035-052-083-230200-
_____NORTHERN NEW YORK_____


CITY           SKY/WX    TMP DP  RH WIND       PRES   REMARKS
PLATTSBURGH    CLOUDY    46  23  40 N21       30.10R
SARANAC LAKE   CLOUDY    40  23  50 VRB6      30.07R
MASSENA        CLEAR     42  19  39 N10       30.17R
OGDENSBURG*    PTCLDY    43  21  42 N7        30.18R
POTSDAM*       MOCLDY     0 -17  46 N10       30.18R WCI -17
STARK FALLS*     N/A     43 N/A N/A NW12        N/A
WATERTOWN      CLOUDY    46  31  55 N10       30.16R
FT DRUM        MOCLDY    43  34  69 N8        30.14R
ALBANY         PTCLDY    56  24  29 W17       30.07R
GLENS FALLS    CLOUDY    49  35  58 N16G23    30.07R

$$
NHZ002-005-011-230200-
_____NEW HAMPSHIRE_____


CITY           SKY/WX    TMP DP  RH WIND       PRES   REMARKS
LEBANON        MOCLDY    52  30  43 NW10      30.02R
KEENE          PTCLDY    55  27  33 NW6       30.02R
MT WASHINGTON  CLOUDY    21  18  86 NW49G55     N/A  WCI  -1
PLYMOUTH         N/A     51  33  51 W5        30.00R
WHITEFIELD     CLOUDY    47  27  45 NW7       29.99R

$$

_____REGIONAL QUEBEC LOCATIONS_____


CITY           SKY/WX    TMP DP  RH WIND       PRES   REMARKS
MONTREAL       PTCLDY    43  18  36 NW12      30.13R
QUEBEC CITY    MOCLDY    41  32  70 SW7       30.01R
SHERBROOKE     LGT RAIN  39  32  75 NW10G21   30.03R

_____REGIONAL ONTARIO LOCATIONS_____


CITY           SKY/WX    TMP DP  RH WIND       PRES   REMARKS
OTTAWA         PTCLDY    41  18  38 NW9       30.17R

______KEY______
VSB  - VISIBILITY IN MILES
WCI  - WIND CHILL INDEX
HX   - HEAT INDEX
$$
NNNN


USA.gov is the U.S. government's official web portal to all federal, state and local government web resources and services.